West Point, KY (40177)

8:16 PM EDT on July 28, 2016 (GMT -0400)
Godman Army Air Field | | Change Station

Elev 755 ft 37.91 °N, 85.97 °W | Updated 18 minutes ago

Clear
Clear
81 °F
Feels Like 86 °F
N
7
Wind Variable Wind from WSW

Today
High -- | Low -- °F
--% Chance of Precip.
Yesterday
High -- | Low -- °F
Precip. -- in
Pressure 29.88 in
Visibility 10.0 miles
Clouds Clear
Heat Index 86 °F
Dew Point 73 °F
Humidity 75%
Rainfall 0.32 in
Snow Depth Not available.
6:43 AM 8:56 PM
Waning Crescent, 27% visible
METAR KFTK 282358Z AUTO 24006KT 10SM CLR 27/23 A2989 RMK AO2 SLP118 T02740226 10284 20262 52009
Pressure 29.88 in
Visibility 10.0 miles
Clouds Clear
Heat Index 86 °F
Dew Point 73 °F
Humidity 75%
Rainfall 0.32 in
Snow Depth Not available.
6:43 AM 8:56 PM
Waning Crescent, 27% visible
METAR KFTK 282358Z AUTO 24006KT 10SM CLR 27/23 A2989 RMK AO2 SLP118 T02740226 10284 20262 52009

10-Day Weather Forecast

Almanac

Astronomy

Jul. 28, 2016 Rise Set
Actual Time
Civil Twilight
Nautical Twilight
Astronomical Twilight
Moon
Length of Visible Light
Length of Day
Tomorrow will be .
, % of the Moon is Illuminated

Today's Extremes

State Highs State Lows

Community

WunderPhotos

Upload Photos

1,928,239 photos uploaded!

WunderBlog® & News

Nearby

Air Quality

  Air Quality AQ Index Pollutant
Not available.

Snow Depth

Station Depth Elevation

Earthquake Activity

City Distance Mag. Time & Date
Minimum magnitude displayed is 2.5.

Coastal Water Temperatures

Place Temperature

Stations

Nearby Weather Stations

Station Location Temp. Windchill Dew Point Humidity Wind Precip. Elev Updated Type
                   

Watches & Warnings

There are currently no watches in effect.